Weather History for Abbeville, LA

Change the Weather History Date:

Friday, October 25, 2013

  Actual Average (KARA) Record (KARA)
Temperature  
Mean Temperature 63 °F 67 °F  
Max Temperature 73 °F 79 °F 87 °F (2004)
Min Temperature 52 °F 56 °F 40 °F (1980)
Degree Days  
Heating Degree Days 2 2  
Month to date heating degree days 18  
Since 1 July heating degree days 19  
Cooling Degree Days 0 4  
Month to date cooling degree days 166  
Year to date cooling degree days 2722  
Growing Degree Days 13 (Base 50)    
Moisture  
Dew Point 49 °F    
Average Humidity 67    
Maximum Humidity 100    
Minimum Humidity 31    
Precipitation  
Precipitation 0.00 in 0.09 in 3.65 in (1996)
Month to date precipitation 4.54  
Year to date precipitation 50.02  
Sea Level Pressure  
Sea Level Pressure 30.31 in    
Wind  
Wind Speed 5 mph (NNE)    
Max Wind Speed 14 mph    
Max Gust Speed 20 mph    
Visibility 10 miles    
Events      
T = Trace of Precipitation, MM = Missing Value Source: NWS Daily Summary

Daily Weather History Graph

Daily Weather History Graph

Search for Another Location

Airport:

Trip Planner

Search our weather history database for the weather conditions in past years. The results will help you decide how hot, cold, wet, or windy it might be!

Date:

Astronomy

Oct. 25, 2013 Rise Set
Actual Time 7:17 AM CDT 6:27 PM CDT
Civil Twilight 6:52 AM CDT 6:51 PM CDT
Nautical Twilight 6:24 AM CDT 7:19 PM CDT
Astronomical Twilight 5:56 AM CDT 7:47 PM CDT
Moon 11:52 PM CDT (10/25) 12:51 PM CDT (10/25)
Length of Visible Light 11h 58m
Length of Day
11h 09m
Waning Gibbous, 62% of the Moon is Illuminated
Oct 25
Waning Gibbous
Oct 26
Last Quarter
Nov 3
New
Nov 9
First Quarter
Nov 17
Full

Hourly Weather History & Observations

Time (CDT) Temp. Dew Point Humidity Pressure Visibility Wind Dir Wind Speed Gust Speed Precip Events Conditions
12:15 AM 58.5 °F 58.5 °F 100% 30.22 in 7.0 mi Calm Calm - N/A   Clear
12:35 AM 58.3 °F 58.3 °F 100% 30.22 in 10.0 mi Calm Calm - N/A   Clear
12:55 AM 58.1 °F 58.1 °F 100% 30.24 in 10.0 mi NNW 5.8 mph - N/A   Clear
1:15 AM 58.1 °F 58.1 °F 100% 30.24 in 10.0 mi NNW 3.5 mph - N/A   Clear
1:35 AM 57.7 °F 57.7 °F 100% 30.24 in 10.0 mi Calm Calm - N/A   Clear
1:55 AM 58.1 °F 58.1 °F 100% 30.24 in 10.0 mi Calm Calm - N/A   Clear
2:15 AM 57.0 °F 57.0 °F 100% 30.24 in 10.0 mi Calm Calm - N/A   Clear
2:35 AM 56.3 °F 56.3 °F 100% 30.24 in 10.0 mi Calm Calm - N/A   Clear
2:55 AM 56.1 °F 56.1 °F 100% 30.24 in 1.0 mi Calm Calm - N/A   Mist
3:15 AM - - N/A% 30.25 in 2.0 mi Calm Calm - N/A   Clear
3:35 AM - - N/A% 30.25 in 5.0 mi North 4.6 mph - N/A   Haze
3:55 AM - - N/A% 30.26 in 10.0 mi NNE 8.1 mph - N/A   Clear
4:15 AM 59.2 °F 59.2 °F 100% 30.26 in 10.0 mi NE 6.9 mph - N/A   Clear
4:35 AM 59.0 °F 59.0 °F 100% 30.27 in 10.0 mi NE 6.9 mph - N/A   Clear
4:55 AM 59.0 °F 59.0 °F 100% 30.28 in 10.0 mi NE 8.1 mph - N/A   Clear
5:15 AM 58.6 °F 57.6 °F 96% 30.29 in 10.0 mi NE 5.8 mph - N/A   Clear
5:35 AM 58.3 °F 56.3 °F 93% 30.29 in 10.0 mi NE 8.1 mph - N/A   Clear
5:55 AM 58.1 °F 55.8 °F 92% 30.30 in 10.0 mi NE 5.8 mph - N/A   Clear
6:15 AM 57.6 °F 55.6 °F 93% 30.31 in 10.0 mi NE 6.9 mph - N/A   Clear
6:35 AM 57.2 °F 55.0 °F 92% 30.31 in 10.0 mi NNE 5.8 mph - N/A   Clear
6:55 AM 56.7 °F 54.9 °F 94% 30.32 in 10.0 mi NNE 6.9 mph - N/A   Clear
7:15 AM 56.3 °F 54.0 °F 92% 30.33 in 10.0 mi NNE 9.2 mph - N/A   Clear
7:35 AM 56.3 °F 53.1 °F 89% 30.34 in 10.0 mi NNE 9.2 mph - N/A   Clear
7:55 AM 56.5 °F 52.7 °F 87% 30.35 in 10.0 mi NE 8.1 mph - N/A   Clear
8:15 AM 57.2 °F 51.4 °F 81% 30.36 in 10.0 mi NNE 10.4 mph - N/A   Clear
8:35 AM 57.9 °F 50.5 °F 76% 30.36 in 10.0 mi NE 10.4 mph 16.1 mph N/A   Clear
8:55 AM 58.6 °F 49.5 °F 72% 30.37 in 10.0 mi NE 10.4 mph 16.1 mph N/A   Clear
9:15 AM 59.5 °F 47.5 °F 64% 30.37 in 10.0 mi NNE 10.4 mph 16.1 mph N/A   Clear
9:35 AM 60.4 °F 46.0 °F 59% 30.38 in 10.0 mi NE 10.4 mph 19.6 mph N/A   Clear
9:55 AM 62.2 °F 45.9 °F 55% 30.38 in 10.0 mi NE 12.7 mph 16.1 mph N/A   Clear
10:15 AM 63.0 °F 45.5 °F 53% 30.38 in 10.0 mi NE 13.8 mph 17.3 mph N/A   Clear
10:35 AM 64.2 °F 45.0 °F 50% 30.38 in 10.0 mi NNE 13.8 mph 17.3 mph N/A   Clear
10:55 AM 65.3 °F 45.0 °F 48% 30.38 in 10.0 mi NE 9.2 mph 16.1 mph N/A   Clear
11:15 AM 65.8 °F 44.8 °F 47% 30.38 in 10.0 mi NE 11.5 mph - N/A   Clear
11:35 AM 66.7 °F 45.0 °F 45% 30.37 in 10.0 mi NE 8.1 mph - N/A   Clear
11:55 AM 67.8 °F 44.2 °F 43% 30.37 in 10.0 mi NNE 10.4 mph - N/A   Clear
12:15 PM 68.9 °F 44.6 °F 42% 30.37 in 10.0 mi NNE 10.4 mph 16.1 mph N/A   Clear
12:35 PM 70.2 °F 45.0 °F 40% 30.36 in 10.0 mi NE 8.1 mph - N/A   Clear
12:55 PM 70.0 °F 44.1 °F 39% 30.34 in 10.0 mi NNE 9.2 mph 16.1 mph N/A   Clear
1:15 PM 70.7 °F 43.9 °F 38% 30.34 in 10.0 mi NE 9.2 mph - N/A   Clear
1:35 PM 71.8 °F 44.2 °F 37% 30.32 in 10.0 mi NE 9.2 mph - N/A   Clear
1:55 PM 72.1 °F 44.1 °F 36% 30.31 in 10.0 mi NNE 8.1 mph - N/A   Clear
2:15 PM 72.9 °F 43.5 °F 35% 30.31 in 10.0 mi North 9.2 mph - N/A   Clear
2:35 PM 73.0 °F 42.8 °F 34% 30.31 in 10.0 mi NNE 8.1 mph - N/A   Clear
2:55 PM 73.4 °F 42.1 °F 32% 30.30 in 10.0 mi NNE 10.4 mph - N/A   Clear
3:15 PM 73.2 °F 42.1 °F 33% 30.30 in 10.0 mi NNE 9.2 mph - N/A   Clear
3:35 PM 72.9 °F 41.4 °F 32% 30.29 in 10.0 mi NNE 6.9 mph - N/A   Clear
3:55 PM 72.9 °F 40.6 °F 31% 30.29 in 10.0 mi NE 5.8 mph - N/A   Clear
4:15 PM 72.7 °F 40.1 °F 31% 30.29 in 10.0 mi North 9.2 mph - N/A   Clear
4:35 PM 72.0 °F 39.4 °F 31% 30.29 in 10.0 mi NE 6.9 mph - N/A   Clear
4:55 PM 71.6 °F 40.5 °F 32% 30.29 in 10.0 mi NNE 4.6 mph - N/A   Clear
5:15 PM 70.7 °F 39.6 °F 32% 30.29 in 10.0 mi NE 9.2 mph - N/A   Clear
5:35 PM 69.8 °F 39.7 °F 33% 30.29 in 10.0 mi NNE 6.9 mph - N/A   Clear
5:55 PM 68.2 °F 41.0 °F 37% 30.29 in 10.0 mi NNE 5.8 mph - N/A   Clear
6:15 PM 66.2 °F 41.5 °F 41% 30.29 in 10.0 mi NNE 5.8 mph - N/A   Clear
6:35 PM 64.0 °F 42.8 °F 46% 30.29 in 10.0 mi NNE 4.6 mph - N/A   Clear
6:55 PM 62.6 °F 44.2 °F 51% 30.30 in 10.0 mi NNE 4.6 mph - N/A   Clear
7:15 PM 61.5 °F 45.0 °F 55% 30.29 in 10.0 mi NNE 4.6 mph - N/A   Clear
7:35 PM 60.6 °F 45.7 °F 58% 30.30 in 10.0 mi Calm Calm - N/A   Clear
7:55 PM 59.7 °F 45.7 °F 60% 30.31 in 10.0 mi Calm Calm - N/A   Clear
8:15 PM 57.9 °F 47.8 °F 69% 30.31 in 10.0 mi Calm Calm - N/A   Clear
8:35 PM 57.9 °F 47.5 °F 68% 30.31 in 10.0 mi NNE 3.5 mph - N/A   Clear
8:55 PM 58.1 °F 46.8 °F 66% 30.32 in 10.0 mi NNE 3.5 mph - N/A   Clear
9:15 PM 58.1 °F 46.2 °F 65% 30.32 in 10.0 mi Calm Calm - N/A   Clear
9:35 PM 57.2 °F 46.4 °F 67% 30.32 in 10.0 mi NE 3.5 mph - N/A   Clear
9:55 PM 56.5 °F 46.6 °F 69% 30.32 in 10.0 mi NE 3.5 mph - N/A   Clear
10:15 PM 55.4 °F 46.6 °F 72% 30.32 in 10.0 mi Calm Calm - N/A   Clear
10:35 PM 54.3 °F 48.4 °F 80% 30.33 in 10.0 mi Calm Calm - N/A   Clear
10:55 PM 53.6 °F 53.1 °F 98% 30.32 in 10.0 mi Calm Calm - N/A   Clear
11:15 PM 53.8 °F 52.5 °F 95% 30.31 in 10.0 mi Calm Calm - N/A   Clear
11:35 PM 53.2 °F 52.0 °F 95% 30.31 in 10.0 mi Calm Calm - N/A   Clear
11:55 PM 52.3 °F 52.3 °F 100% 30.30 in 10.0 mi Calm Calm - N/A   Clear